Skip Page Navigation
NASA JPL Caltech
NASA Logo - Jet Propulsion Laboratory + View the NASA Portal
+ Center for Near-Earth Object Studies
JPL Home Earth Solar System Stars & Galaxies Technology
JPL Solar System Dynamics
BODIES ORBITS EPHEMERIDES TOOLS PHYSICAL DATA DISCOVERY FAQ SITE MAP
IMPORTANT: The SSD Announcement email list is now available. Major changes are coming in the near future, including possible hostname and/or URL changes. To be notified of such changes, subscribe to this email list.

Please visit this page for more details.


JPL Small-Body Database Browser
Search: [ help ]  
3693 Barringer (1982 RU)
Classification: Main-belt Asteroid          SPK-ID: 2003693
Ephemeris | Orbit Diagram | Orbital Elements | Mission Design | Physical Parameters | Discovery Circumstances | Close-Approach Data ]

[ show orbit diagram ]
Orbital Elements at Epoch 2458600.5 (2019-Apr-27.0) TDB
Reference: JPL 35 (heliocentric ecliptic J2000)
 Element Value Uncertainty (1-sigma)   Units 
e .2038527103883977 4.0387e-08  
a 3.145461065492539 1.796e-08 au
q 2.504250301870708 1.2813e-07 au
i 14.91941433465673 4.5716e-06 deg
node 178.8669696303114 1.4422e-05 deg
peri 184.4533213568351 1.7043e-05 deg
M 212.2136104682918 1.1033e-05 deg
tp 2459436.982455042570
(2021-Aug-10.48245504)
6.6481e-05 TDB
period 2037.627989759609
5.58
1.7452e-05
4.778e-08
d
yr
n .1766760182963875 1.5132e-09 deg/d
Q 3.786671829114372 2.1621e-08 au
  Orbit Determination Parameters
   # obs. used (total)      2194  
   data-arc span      23642 days (64.73 yr)  
   first obs. used      1954-11-24  
   last obs. used      2019-08-17  
   planetary ephem.      DE431  
   SB-pert. ephem.      SB431-N16  
   condition code      0  
   norm. resid. RMS      .46043  
   source      ORB  
   producer      Otto Matic  
   solution date      2019-Sep-23 19:32:59  

Additional Information
 Earth MOID = 1.50115 au 
 Jupiter MOID = 1.66838 au 
 T_jup = 3.125 
[ show covariance matrix ]

Ephemeris | Orbit Diagram | Orbital Elements | Mission Design | Physical Parameters | Discovery Circumstances | Close-Approach Data ]

Physical Parameter Table
Parameter Symbol Value Units Sigma Reference Notes
absolute magnitude H 11.8   n/a MPO365290  
diameter diameter 27.494 km 0.159 urn:nasa:pds:neowise_diameters_albedos::2.0[mainbelt] (http://adsabs.harvard.edu/abs/2014ApJ...791..121M)  
rotation period rot_per 6.626 h n/a LCDB (Rev. 2019-January); Warner et al., 2009 Published Reference List:
[Pray, D. (2005) Minor Planet Bull. 32, 8-9.]
[Hanus, J.; Durech, J.; Oszkiewicz, D.A.; Behrend, R.; et al. (2016) Astron. Astrophys. 586, A108.]
geometric albedo albedo 0.049   0.010 urn:nasa:pds:neowise_diameters_albedos::2.0[mainbelt] (http://adsabs.harvard.edu/abs/2012ApJ...759L...8M)  

3693 Barringer (1982 RU)          Discovered 1982-Sep-15 by Bowell, E. at Flagstaff (AM)
Discovered at the Anderson Mesa station, which is operated by the Lowell Observatory.
Reference: DISCOVERY.DBLast Updated: 2003-08-29

[ show close-approach data ]
Ephemeris | Orbit Diagram | Orbital Elements | Mission Design | Physical Parameters | Discovery Circumstances | Close-Approach Data ]
ABOUT SSD CREDITS/AWARDS PRIVACY/COPYRIGHT GLOSSARY LINKS
FirstGov 2020-Jan-21 03:19 UT
(server date/time)  
NASA Home Page
Site Manager:   Ryan S. Park
Webmaster  Alan B. Chamberlin